TimePST,TemperatureF,Dew PointF,Humidity,Sea Level PressureIn,VisibilityMPH,Wind Direction,Wind SpeedMPH,Gust SpeedMPH,PrecipitationIn,Events,Conditions,WindDirDegrees,DateUTC
12:53 AM,28.0,27.0,96,30.40,7.0,WSW,4.6,-,N/A,,Overcast,240,2013-01-13 08:53:00
1:53 AM,28.9,27.0,92,30.40,10.0,Calm,Calm,-,N/A,,Mostly Cloudy,0,2013-01-13 09:53:00
2:48 AM,28.4,26.6,93,30.39,10.0,Calm,Calm,-,N/A,,Overcast,0,2013-01-13 10:48:00
2:53 AM,28.9,28.0,96,30.41,10.0,Calm,Calm,-,N/A,,Overcast,0,2013-01-13 10:53:00
3:53 AM,28.9,27.0,92,30.40,10.0,Calm,Calm,-,N/A,,Overcast,0,2013-01-13 11:53:00
4:53 AM,28.9,28.0,96,30.40,10.0,Calm,Calm,-,N/A,,Overcast,0,2013-01-13 12:53:00
5:53 AM,30.0,27.0,88,30.40,10.0,Calm,Calm,-,N/A,,Overcast,0,2013-01-13 13:53:00
6:53 AM,30.0,26.1,85,30.42,10.0,North,3.5,-,N/A,,Overcast,10,2013-01-13 14:53:00
7:48 AM,30.2,24.8,80,30.41,10.0,Calm,Calm,-,N/A,,Overcast,0,2013-01-13 15:48:00
7:53 AM,30.0,24.1,79,30.44,10.0,Calm,Calm,-,N/A,,Overcast,0,2013-01-13 15:53:00
8:53 AM,30.0,24.1,79,30.45,10.0,Calm,Calm,-,N/A,,Overcast,0,2013-01-13 16:53:00
9:36 AM,30.2,23.0,75,30.44,10.0,ENE,3.5,-,N/A,,Overcast,60,2013-01-13 17:36:00
9:53 AM,30.9,23.0,72,30.46,10.0,NE,4.6,-,N/A,,Overcast,40,2013-01-13 17:53:00
10:53 AM,32.0,23.0,69,30.47,10.0,Calm,Calm,-,N/A,,Overcast,0,2013-01-13 18:53:00
11:53 AM,33.1,24.1,70,30.45,10.0,Calm,Calm,-,N/A,,Overcast,0,2013-01-13 19:53:00
12:53 PM,34.0,24.1,67,30.43,10.0,Calm,Calm,-,N/A,,Mostly Cloudy,0,2013-01-13 20:53:00
1:04 PM,33.8,24.8,70,30.40,10.0,Calm,Calm,-,N/A,,Scattered Clouds,0,2013-01-13 21:04:00
1:53 PM,36.0,25.0,64,30.42,10.0,SW,3.5,-,N/A,,Partly Cloudy,230,2013-01-13 21:53:00
2:11 PM,35.6,24.8,65,30.40,10.0,NNW,5.8,-,N/A,,Mostly Cloudy,330,2013-01-13 22:11:00
2:53 PM,36.0,26.1,67,30.41,10.0,Variable,3.5,-,N/A,,Mostly Cloudy,0,2013-01-13 22:53:00
3:53 PM,34.0,26.1,73,30.44,10.0,North,8.1,-,N/A,,Overcast,360,2013-01-13 23:53:00
4:53 PM,33.1,25.0,72,30.44,10.0,NNW,5.8,-,N/A,,Overcast,330,2013-01-14 00:53:00
5:27 PM,32.0,24.8,75,30.42,10.0,North,4.6,-,N/A,,Scattered Clouds,360,2013-01-14 01:27:00
5:53 PM,32.0,26.1,79,30.44,10.0,Calm,Calm,-,N/A,,Clear,0,2013-01-14 01:53:00
6:53 PM,30.9,26.1,82,30.46,10.0,Calm,Calm,-,N/A,,Clear,0,2013-01-14 02:53:00
7:53 PM,28.9,25.0,85,30.47,10.0,Calm,Calm,-,N/A,,Clear,0,2013-01-14 03:53:00
8:53 PM,28.0,24.1,85,30.48,10.0,Calm,Calm,-,N/A,,Clear,0,2013-01-14 04:53:00
9:53 PM,27.0,24.1,89,30.48,9.0,Calm,Calm,-,N/A,,Clear,0,2013-01-14 05:53:00
10:53 PM,26.1,24.1,92,30.48,7.0,Calm,Calm,-,N/A,,Scattered Clouds,0,2013-01-14 06:53:00
11:24 PM,26.6,23.0,86,30.46,10.0,Calm,Calm,-,N/A,,Mostly Cloudy,0,2013-01-14 07:24:00
11:53 PM,26.1,24.1,92,30.49,6.0,Calm,Calm,-,N/A,,Overcast,0,2013-01-14 07:53:00